Location: Huntsville
(41.2590°N, 111.7678°W)
Time: 21:03:35
(UTC+00:00)

Explorer 7 - Pass Details

Date: 17 June 2021
Orbit: 484 x 676 km, 50.3° (Epoch: 30 July)

Event Time Altitude Azimuth Distance (km) Brightness Sun altitude
Rises 07:42:53 0° 281° (W) 3,004 10.7 -25.3°
Reaches altitude 10° 07:45:34 10° 293° (WNW) 2,072 9.9 -25.2°
Maximum altitude 07:49:40 28° 352° (N) 1,216 9.2 -25.2°
Drops below altitude 10° 07:53:38 10° 52° (NE) 1,988 10.2 -25.1°
Sets 07:56:10 0° 64° (ENE) 2,858 10.9 -25.0°
